Location: Epfenhofen
(47.8180°N, 8.5543°E)
Time: 13:42:49
(UTC+00:00)

Daily predictions for brighter satellites

Satellite Brightness Start Highest point End
(mag) Time Altitude Azimuth Time Altitude Azimuth Time Altitude Azimuth
Cosmos 1975 Rocket 3.8 19:59:22 10° SSW 20:03:44 58° WNW 20:08:06 10° N
Cosmos 1741 Rocket 4.3 19:58:52 10° NNW 20:04:08 57° ENE 20:09:22 10° SE
SL-24 R/B 4.4 20:00:17 10° SSE 20:04:41 76° ENE 20:09:44 10° N
ATLAS 5 CENTAUR R/B 4.0 19:51:45 10° NW 20:05:32 54° WSW 20:09:41 10° SSE
Cosmos 2315 Rocket 4.3 20:02:11 10° SSW 20:08:31 79° W 20:14:49 10° N
SPOT 3 Rocket 3.7 20:06:33 10° SSE 20:11:41 64° ENE 20:16:51 10° N
Cosmos 2074 Rocket 4.2 20:06:31 10° N 20:12:43 58° ENE 20:18:50 10° SSE
Ariane Rocket 3.1 20:08:08 10° SSE 20:13:15 84° WSW 20:18:23 10° NNW
Cosmos 1544 Rocket 3.9 20:15:13 10° NNW 20:19:31 65° W 20:23:48 10° S
Lacrosse 5 rocket 3.8 20:20:03 10° WSW 20:21:06 11° WSW 20:22:10 10° SW
Cosmos 1656 3.8 20:16:46 10° NNW 20:22:14 73° WSW 20:27:44 10° SSE
GEOS 3 Rocket 4.4 20:18:14 10° SSE 20:23:06 44° WSW 20:28:00 10° NW
Nadezhda 1 Rocket 4.5 20:19:42 10° SSE 20:25:19 41° E 20:30:58 10° NNE
ATLAS 2AS CENTAUR R/B 3.6 20:22:10 10° NW 20:28:41 41° WSW 20:34:48 10° S
USA 234 4.4 20:23:08 10° ENE 20:29:12 42° N 20:35:17 10° WNW
MetOp-B 4.4 20:25:14 10° S 20:30:34 71° WSW 20:35:57 10° NNW
Cosmos 1850 Rocket 4.0 20:25:54 10° NNW 20:31:08 86° WSW 20:36:18 10° SSE
SL-16 R/B 4.4 20:29:24 10° N 20:32:58 17° NE 20:36:31 10° ENE
Cosmos 1980 Rocket 3.0 20:28:33 10° NNW 20:33:56 41° NE 20:39:07 11° ESE
Cosmos 1697 Rocket 2.8 20:28:44 10° NNW 20:34:22 72° ENE 20:39:32 12° SE
Cosmos 2344 4.4 20:27:50 10° NW 20:36:29 71° NE 20:48:14 11° SE
SL-8 R/B 3.9 20:32:24 10° WNW 20:37:07 57° SSW 20:41:22 13° SE
Cosmos 2369 4.3 20:31:54 10° NNW 20:37:28 48° NE 20:42:35 12° SE
Cosmos 1331 Rocket 4.1 20:33:00 10° S 20:38:11 56° ESE 20:43:23 10° NNE
COSMOS 2406 3.7 20:38:08 10° S 20:43:31 42° ESE 20:48:54 10° NE
Spot 2 Rocket 3.5 20:38:47 11° SSE 20:43:44 80° ENE 20:48:53 10° NNW
Cosmos 2154 Rocket 4.1 20:38:08 10° N 20:44:21 70° ENE 20:50:11 12° SSE
X-37B 1.0 20:42:47 10° W 20:45:23 35° SSW 20:47:01 18° SE
CZ-2C R/B 4.0 20:43:30 10° NNE 20:47:54 47° E 20:51:58 11° S
ATLAS 5 CENTAUR R/B 3.3 20:48:00 11° ESE 20:48:00 11° ESE 20:48:58 10° E
SPOT 5 2.6 20:49:45 12° SSE 20:53:44 84° WSW 20:58:06 10° NNW
Cosmos 1703 3.5 20:52:26 10° SSW 20:56:16 69° W 21:00:07 10° N
Cosmos 2084 Rocket 3.2 20:53:09 10° NW 20:57:04 80° NE 21:00:03 18° SE
RESURS DK-1 3.3 20:53:59 10° NW 20:57:53 42° WSW 21:01:19 13° S
Cosmos 1452 Rocket 4.1 20:54:10 10° SW 20:59:22 61° WNW 21:04:35 10° NNE
Cosmos 1833 Rocket 2.7 20:53:57 10° SSW 20:59:34 89° ESE 21:05:14 10° NNE
Terra 1.8 20:56:28 15° SSE 21:00:24 78° ENE 21:05:12 10° NNW
CZ-4B R/B 3.8 20:59:27 10° NNW 21:01:37 19° WNW 21:03:46 10° WSW
ASTEX 1 4.4 20:58:50 10° NNE 21:03:19 32° E 21:06:20 18° SE
Cosmos 967 Rocket 4.5 20:58:04 10° SSW 21:04:31 78° ESE 21:11:00 10° NE
Helios 1A Rocket 3.1 21:01:06 14° S 21:04:32 69° WSW 21:08:39 10° NNW
Cosmos 1110 Rocket 4.1 21:00:01 10° SSW 21:05:18 82° WNW 21:10:39 10° NNE
FALCON 9 DEB 4.1 21:03:18 10° WNW 21:06:27 43° NNE 21:09:35 10° E
ERS-1 Rocket 3.1 21:02:33 13° S 21:06:59 75° WSW 21:12:03 10° NNW
Cosmos 1892 Rocket 3.9 21:04:14 17° SSE 21:07:18 46° E 21:11:30 10° NNE
Resurs 01 Rocket 4.1 21:04:53 10° SW 21:07:52 18° W 21:10:53 10° NW
Cosmos 1302 Rocket 4.2 21:03:51 11° S 21:08:37 51° ESE 21:13:38 10° NNE
Cosmos 2322 Rocket 4.2 21:04:39 10° N 21:08:49 20° NE 21:12:58 10° E
Cosmos 2228 3.5 21:07:25 10° NNW 21:11:34 54° W 21:15:15 13° S
Cosmos 2058 Rocket 3.6 21:08:19 10° N 21:12:35 46° ENE 21:15:19 20° SE
Cosmos 1825 3.8 21:15:03 17° ESE 21:16:14 20° E 21:18:59 10° NE
Cosmos 1408 3.0 21:16:14 24° SSE 21:17:47 40° E 21:21:02 10° NNE
Lacrosse 5 4.2 21:16:36 10° W 21:18:13 11° WSW 21:19:50 10° SW
Meteor 1-11 4.4 21:15:39 17° SSE 21:19:50 54° E 21:25:15 10° NNE
Cosmos 2278 4.2 21:14:38 10° NNW 21:20:15 53° ENE 21:24:23 18° SE
Cosmos 968 Rocket 3.5 21:17:51 10° NNW 21:23:05 84° ENE 21:26:36 21° SSE
Cosmos 1328 3.9 21:22:06 14° SSW 21:25:31 76° W 21:29:32 10° N
Cosmos 2218 Rocket 4.5 21:20:17 10° N 21:26:32 51° ENE 21:30:50 20° SE
USA 276 2.6 21:25:21 10° WNW 21:28:21 57° N 21:31:02 12° E
SJ 16-02 3.4 21:29:06 10° N 21:32:13 18° NE 21:35:20 10° E
Cosmos 1867 3.6 21:27:29 10° NW 21:32:59 88° SW 21:36:30 23° SE
Cosmos 2082 Rocket 2.2 21:27:41 10° SSW 21:33:21 72° ESE 21:39:03 10° NNE
USA 267 3.6 21:30:30 10° ENE 21:36:40 42° SE 21:42:47 10° SSW
ARIANE 5 R/B 3.0 21:35:43 20° S 21:38:39 60° WSW 21:43:02 10° NNW
Cosmos 1606 Rocket 4.5 21:36:09 10° NNW 21:40:15 42° W 21:43:24 16° SSW
GP-B 3.1 21:36:47 10° N 21:41:13 67° E 21:43:34 27° SSE
Cosmos 2341 Rocket 4.0 21:36:21 10° N 21:42:43 89° ENE 21:47:01 22° S
Cosmos 2360 Rocket 4.0 21:40:25 10° N 21:44:56 24° NE 21:49:25 10° E
SAR-Lupe-4 3.6 21:41:50 10° NNE 21:45:23 60° ESE 21:46:46 33° SSE
CSL-04 DEB 4.5 21:47:34 10° NNE 21:51:57 75° ESE 21:54:21 26° S
Okean 1-7 Rocket 3.6 21:58:40 30° S 22:00:44 67° E 22:05:13 10° NNE
SAR-Lupe-1 4.1 21:58:22 10° N 22:01:57 75° WNW 22:03:39 29° SSW
Cosmos 1892 2.9 22:02:06 26° SSW 22:04:03 64° W 22:07:49 10° N
Cosmos 1758 Rocket 4.4 22:08:36 29° SE 22:09:55 36° E 22:13:57 10° NNE
Cosmos 2181 Rocket 4.0 22:07:21 22° S 22:11:31 88° W 22:17:48 10° N
USA 234 3.5 22:05:11 10° ESE 22:11:41 68° NNE 22:18:13 10° NW
Cosmos 1633 3.0 22:12:09 38° ESE 22:12:40 41° E 22:15:57 10° NNE
Cosmos 1980 Rocket 3.1 22:12:42 10° NW 22:17:55 38° WSW 22:20:52 22° SSW
Cosmos 1821 Rocket 4.2 22:11:53 10° N 22:18:03 59° ENE 22:21:23 27° SSE
SL-16 R/B 2.4 22:12:31 10° NNW 22:18:12 67° ENE 22:21:23 27° SE
Cosmos 1486 Rocket 4.0 22:13:24 10° NNW 22:18:37 74° WSW 22:21:05 32° S
Cosmos 1992 Rocket 3.9 22:15:18 23° SSW 22:18:40 89° ESE 22:23:57 10° NNE
Cosmos 1812 Rocket 3.7 22:16:00 10° N 22:20:28 65° E 22:22:08 36° SSE
Cosmos 1932 4.5 22:14:29 10° SW 22:20:43 86° NW 22:27:07 10° NE
SL-4 R/B 4.0 22:23:23 12° E 22:23:23 12° E 22:23:49 10° E
Cosmos 2219 Rocket 4.3 22:17:41 10° N 22:21:58 21° NE 22:26:15 10° E
Cosmos-2242 3.1 22:25:34 10° N 22:29:48 64° ENE 22:31:12 39° SE
ATLAS 5 CENTAUR R/B 1.3 22:29:23 24° SW 22:31:34 78° NW 22:35:48 10° NE
Cosmos 1602 Rocket 3.4 22:32:11 39° S 22:33:44 84° E 22:38:05 10° N
Cosmos 1869 3.9 22:30:07 10° NNW 22:33:53 48° W 22:35:09 34° SW
Cosmos 807 4.1 22:31:10 10° NNW 22:34:13 66° W 22:34:24 63° WSW
ERS-2 3.6 22:34:39 10° NE 22:37:33 23° E 22:37:40 23° E
Terra 4.2 22:36:17 10° WSW 22:38:44 14° W 22:41:12 10° WNW
Nadezhda 3 Rocket 4.1 22:36:22 31° SSE 22:39:22 63° E 22:45:27 10° NNE
ALOS 2 2.6 22:39:48 39° SSE 22:41:22 74° ENE 22:45:45 10° N
FALCON 9 DEB 3.6 22:39:36 10° WNW 22:42:17 43° WSW 22:42:17 43° WSW
Cosmos 1354 Rocket 4.0 22:41:32 10° NNW 22:46:53 85° WSW 22:49:06 36° SSE
BREEZE-M DEB (TANK) 3.9 22:45:28 10° WNW 22:48:52 89° N 23:02:45 10° ESE
ADEOS Rocket 3.5 22:45:43 28° SSE 22:50:03 87° ENE 22:57:52 10° NNW
Cosmos 1825 3.5 22:49:40 22° WSW 22:51:21 32° WNW 22:54:46 10° N
Cosmos 2322 Rocket 2.2 22:47:58 10° NNW 22:53:42 88° ENE 22:56:23 33° SSE
Cosmos 1503 Rocket 4.2 22:51:24 10° NNW 22:56:37 59° WSW 22:58:35 36° S
Cosmos 1953 Rocket 4.2 22:58:43 36° SE 22:59:52 44° E 23:04:05 10° NNE
USA 276 3.4 23:01:09 10° WNW 23:02:50 28° W 23:02:50 28° W
Cosmos 1777 Rocket 3.9 22:59:23 10° NNW 23:04:43 90° S 23:06:53 37° SSE
Cosmos 2333 Rocket 2.9 23:03:18 10° NNW 23:08:56 51° NE 23:12:52 19° SE
Cosmos 1825 Rocket 3.4 23:08:18 47° S 23:09:31 86° E 23:13:53 10° N
CENTAUR R/B 4.1 23:09:34 15° ESE 23:11:02 16° ESE 23:14:46 10° ENE
SJ 16-02 1.5 23:06:48 10° NNW 23:11:11 60° WSW 23:12:19 44° SSW
Gbstr 26 Del rocket 3.3 23:11:09 46° S 23:11:44 49° SE 23:16:40 10° ENE
COSMOS 2487 4.4 23:13:59 15° E 23:13:59 15° E 23:15:22 10° ENE
Cosmos 1340 Rocket 2.9 23:13:04 51° SE 23:13:45 61° E 23:17:41 10° NNE
Cosmos 2082 Rocket 4.2 23:13:22 10° W 23:18:01 25° NW 23:22:40 10° N
H-2A R/B 3.9 23:15:15 10° N 23:19:23 55° WNW 23:20:55 34° SW
USA 267 3.4 23:13:25 10° NE 23:19:57 74° NNW 23:26:28 10° WSW
Celestis-02/Orion 38 4.5 23:19:53 34° SSE 23:22:11 89° NE 23:27:18 10° NNW
Cosmos 2221 2.7 23:22:35 10° N 23:26:56 64° E 23:28:17 41° SE
Cosmos 2058 3.1 23:26:08 43° SW 23:27:19 66° W 23:31:31 10° N
Cosmos 1606 3.5 23:23:59 10° NNW 23:27:35 38° W 23:28:16 35° WSW
Cosmos 2360 Rocket 2.1 23:23:52 10° NNW 23:29:34 77° WSW 23:32:00 36° SSE
Cosmos 1842 Rocket 4.1 23:25:13 10° N 23:29:37 52° ENE 23:31:14 34° SE
Cosmos 1934 Rocket 3.9 23:24:08 10° N 23:30:15 81° W 23:33:06 34° S
Nimbus 7 Rocket 4.4 23:27:55 10° NNE 23:33:53 73° ESE 23:36:36 34° S
Cosmos 2333 4.3 23:28:18 10° NNW 23:34:07 76° ENE 23:37:21 27° SE
Resurs 1-4 Rocket 4.4 23:32:47 10° ENE 23:35:03 13° E 23:37:17 10° ESE
Cosmos 1782 4.1 23:32:08 10° N 23:35:46 33° ENE 23:37:13 25° ESE
Cosmos 1833 4.1 23:39:57 36° SSW 23:42:19 79° ESE 23:47:57 10° NNE
NOSS 8 (A) 4.1 23:42:23 76° WSW 23:42:36 84° NW 23:45:35 10° NE
Cosmos 44 3.0 23:41:21 45° SSW 23:42:39 71° SE 23:47:07 10° NE
CZ-2D R/B 4.3 23:41:03 10° NE 23:43:45 14° E 23:46:28 10° ESE
Cosmos 2237 Rocket 4.1 23:49:12 10° N 23:53:57 26° NE 23:58:41 10° ESE
